Tracking 27112 objects as of 27-Mar-2023
HD Live streaming from Space Station
objects crossing your sky now

COSMOS 2197

Track COSMOS 2197 now!
10-day predictions
COSMOS 2197 is classified as:


NORAD ID: 22034
Int'l Code: 1992-042A
Perigee: 1,402.5 km
Apogee: 1,423.2 km
Inclination: 82.6 °
Period: 113.9 minutes
Semi major axis: 7783 km
RCS: 1.1368 m2 (large)
Launch date: July 13, 1992
Source: Commonwealth of Independent States (former USSR) (CIS)
Launch site: PLESETSK MISSILE AND SPACE COMPLEX (PKMTR)
Your satellite tracking list
Your tracking list is empty




NASA's NSSDC Master Catalog

Two Line Element Set (TLE):
1 22034U 92042A   23085.93264979  .00000027  00000-0  89983-4 0  9995
2 22034  82.5894 261.7958 0013302  76.0642  37.9147 12.64193806416407
Source of the keplerian elements: AFSPC